Showing default

KINEIS-5A, 62084

Orbit data source: Space-Track

KINEIS-5A, 62084 is a French payload satellite in SSO that was launched on Mon, 25 Nov 2024 UTC via an ELECTRON launch vehicle from the Rocket Lab Launch Complex (RLLC). Payload-class satellites include a variety of spacecraft equipped with specific instruments for various scientific and technological missions. These include communications satellites like Starlink; space stations such as the ISS; scientific satellites like the Hubble; Earth observation satellites from companies like Planet Labs, Umbra, and HawkEye 360; GPS; miniature CubeSats for education and research; and military/defense satellites.

Loading next visibility...
Identifier
62084, 2024-219D
Orbit
SSO
Country
Flag of FRFR
Related business
Manufacturer
KINEIS
Mission
Operational Commercial Communications
Bus & Motor
CUBESAT 16U, Unknown motor
Mass
28 kg wet, 28 kg dry
Launch date (UTC)
2024-11-25 (9 months ago)
Launch vehicle
ELECTRON
Launch site
Rocket Lab Launch Complex (RLLC)
Object type
Payload
Rocket body
Debris
Shape & HBR
Box + 2 Pan + 1 Ant, 0.8 m
Radar Cross Section
0.229 m², Medium (>0.1 m² and < 1m²)

Expand to show TLE details & history
Last TLE update: 18 hours ago

TLE from 18 hours ago
0 KINEIS-5A
1 62084U 24219D   25242.27125848  .00001262  00000-0  20731-3 0  9997
2 62084  97.9795  42.3802 0003070 130.3847 229.7629 14.72327647 40962
Epoch: 2025-08-30T06:30Z
TLE epoch observation values (Epoch: 2025-08-30T06:30:36.732Z)
Latitude
-0.00002°
Longitude
-33.9808°
Altitude
658.051 km
Speed
7.528 km/s
True Right ascension
02h 49m 31s
True Declination
0° 00' 00"
Sunlit
Object was in full shadow at epoch
Visualization orbit readout
Latitude
Unknown
Longitude
Unknown
Altitude
Unknown
Speed
Unknown
Apparent Right ascension
Unknown
Apparent Declination
Unknown
Sunlit
N/A
Visualization observer readout
Local Sidereal Time
15:42:11
Azimuth
Unknown
Elevation
Unknown
Doppler factor
Unknown
Orbital elements
Apogee altitude
652.86 km
Perigee altitude
648.544 km
Semi-major axis
7,028.839 km
Eccentricity
0.00031
Inclination
97.9795°
RAAN
42.3802°
Arg. of periapsis
130.3847°
True anomaly
229.73605°
Mean anomaly
229.7629°
Eccentric anomaly
229.74947°
Mean motion
3.68314 °/min
Orbital period
97.74 mins
BSTAR
0.00020731
Loading maneuver chart data...
Computing Atmospheric mass density...
Loading historical data...
Loading historical data...
Loading historical data...
Loading historical data...
Loading historical data...
Loading historical data...
Loading historical data...

Documentation

Showing up to 5 results
|